User: anonymous   Login
Location: Unspecified
(0.0000°N, 0.0000°E)
Time: 06:08:49
(UTC+00:00)
Language:

FLTSATCOM F7 - Orbit

View from above orbital plane
View from above orbital plane
View from above satellite
View from above satellite

Ground track
Ground track

The orbit data is extracted from the following two-line orbital elements,

1 17181U 86096A   23272.84001434 -.00000070  00000-0  00000+0 0  9994
2 17181  13.5185 346.5434 0037408 304.1686  47.0068  0.98928993142113
Epoch (UTC): 29 September 2023 20:09:37
Eccentricity: 0.0037408
inclination: 13.5185°
perigee height: 36008 km
apogee height: 36326 km
right ascension of ascending node: 346.5434°
argument of perigee: 304.1686°
revolutions per day: 0.98928993
mean anomaly at epoch: 47.0068°
orbit number at epoch: 14211

The dashed part of the orbit path shows where the satellite is in the earth's shadow,  

DLR